Flag for Saudi Arabia Weather past 2 weeks in Riyadh, Saudi Arabia

Now
54 °F

Passing clouds.


Feels Like: 54 °F
Forecast: 58 / 67 °F
Wind: 2 mph from Southeast

Location: King Khaled International Airport

Current Time: Dec 23, 2014 at 3:57:46 AM

Latest Report: Dec 23, 2014 at 3:00 AM


Visibility: N/A

Pressure: 30.07 "Hg

Humidity: 51%

Dew point: 36 °F

Location of RiyadhLocation

Historic Weather in Riyadh — Graph

°F

Riyadh temperature yesterday

Maximum temperature yesterday: 66 °F (at 2:00 PM)
Minimum temperature yesterday: 55 °F (at 5:00 AM)
Average temperature yesterday: 60 °F

Past Weeks' High & Low Weather Summary

 TemperatureHumidityPressure
High81 °F (Dec 11, 12:00 PM)94% (Dec 17, 5:00 AM)30.33 "Hg (Dec 17, 5:00 AM)
Low48 °F (Dec 8, 6:00 AM)14% (Dec 13, 1:00 PM)29.95 "Hg (Dec 21, 3:00 PM)
Average62 °F46%30.17 "Hg
* Reported Dec 8 2:00 AM — Dec 23 2:00 AM, Riyadh, Weather by CustomWeather, © 2014

Note: Actual official high and low records may vary slightly from our data, if they occured in-between our weather recording intervals... More about our weather records

Advertising

Riyadh weather history for previous 24 hours

 ConditionsComfort  
Time TempWeatherWind HumidityBarometerVisibility
2:00 AM
Dec 23
54 °FPassing clouds.2 mph51%30.09 "HgN/A
1:00 AM55 °FPassing clouds.2 mph47%30.09 "HgN/A
12:00 AM57 °FClear.3 mph41%30.09 "Hg10 mi
11:00 PM
Dec 22
57 °FClear.3 mph44%30.12 "Hg10 mi
10:00 PM59 °FClear.5 mph42%30.09 "Hg10 mi
9:00 PM59 °FClear.3 mph42%30.09 "Hg10 mi
8:00 PM61 °FClear.3 mph36%30.09 "Hg10 mi
7:00 PM63 °FClear.6 mph34%30.09 "Hg10 mi
6:00 PM63 °FClear.6 mph39%30.09 "Hg10 mi
5:00 PM64 °FPartly sunny.6 mph34%30.07 "HgN/A
4:00 PM66 °FSunny.6 mph26%30.04 "Hg10 mi
3:00 PM66 °FSunny.6 mph26%30.04 "Hg10 mi
2:00 PM66 °FSunny.6 mph26%30.07 "Hg10 mi
1:00 PM64 °FSunny.8 mph32%30.07 "Hg10 mi
12:00 PM63 °FSunny.6 mph34%30.12 "Hg10 mi
11:00 AM61 °FSunny.8 mph42%30.12 "Hg10 mi
10:00 AM59 °FPartly sunny.8 mph48%30.15 "HgN/A
9:00 AM59 °FBroken clouds.9 mph48%30.15 "HgN/A
8:00 AM55 °FBroken clouds.8 mph55%30.12 "HgN/A
7:00 AM55 °FSunny.6 mph55%30.12 "Hg10 mi
6:00 AM55 °FClear.6 mph55%30.09 "Hg10 mi
5:00 AM55 °FClear.10 mph55%30.09 "Hg10 mi
4:00 AM57 °FClear.12 mph51%30.09 "Hg10 mi
3:00 AM57 °FClear.8 mph51%30.07 "Hg10 mi
Weather by CustomWeather, © 2014

See weather overviewHow to use our weather pages